Location: Oshawa
(43.9000°N, 78.8670°W)
Time: 16:20:41
(UTC-04:00)

Transit 2A Rocket - Visible Passes

Search period start: 24 June 2016 00:00
Search period end: 04 July 2016 00:00
Orbit: 584 x 920 km, 66.7° (Epoch: 23 June)

Date Brightness Start Highest point End Pass type
(mag) Time Alt. Az. Time Alt. Az. Time Alt. Az.
24 Jun 7.4 00:46:59 10° WNW 00:49:36 13° W 00:51:21 12° WSW visible
24 Jun 5.5 22:19:27 10° NNW 22:25:37 68° NE 22:30:15 17° SE visible
25 Jun 6.9 00:03:10 10° WNW 00:07:42 22° WSW 00:10:10 17° SW visible
25 Jun 6.0 21:37:13 10° NNW 21:43:08 45° NE 21:48:48 10° ESE visible
25 Jun 6.4 23:20:11 10° NW 23:25:42 36° WSW 23:29:04 20° SSW visible
26 Jun 5.7 22:37:33 10° NW 22:43:34 58° WSW 22:47:58 17° S visible
27 Jun 5.4 21:55:07 10° NNW 22:01:19 90° WSW 22:06:56 11° SSE visible
27 Jun 7.4 23:39:42 10° WNW 23:43:05 15° WSW 23:46:22 10° SW visible
28 Jun 6.9 22:56:16 10° NW 23:01:10 26° WSW 23:05:51 10° SSW visible
29 Jun 6.3 22:13:25 10° NW 22:19:07 42° WSW 22:24:32 10° S visible
30 Jun 5.7 21:30:51 10° NW 21:36:57 67° WSW 21:42:42 10° SSE visible
30 Jun 7.9 23:18:00 10° W 23:18:24 10° W 23:18:47 10° WSW visible
01 Jul 7.5 22:32:37 10° WNW 22:36:33 18° WSW 22:40:21 10° SW visible
02 Jul 6.9 21:49:25 10° NW 21:54:36 30° WSW 21:59:32 10° SSW visible
